Regional Weather Roundup
Issued by NWS Midland/Odessa, TX

Skip options and go directly to product.
Home | Oldest Version | Previous Version | Current Version | All | Text Only | Save Text | Print | Product List | Glossary On

Skip product version selection by date and time.   
871
ASUS44 KMAF 060910
RWRMAF
MIDLAND AREA WEATHER ROUNDUP
NATIONAL WEATHER SERVICE MIDLAND TX
300 AM CST FRI MAR 06 2015

...IN SOUTHWEST TEXAS AND SOUTHEAST NEW MEXICO...

CITY           SKY/WX    TMP DP  RH WIND       PRES   REMARKS
ALPINE         CLEAR     27  24  89 SW6       30.43F WCI  20
ANDREWS        FAIR      27  26  94 W3        30.43S
ARTESIA        CLOUDY    23  23 100 S5        30.40S FOG     WCI  17
BIG SPRING     CLEAR     26  18  73 CALM      30.48F
CARLSBAD       CLEAR     26  23  88 S6        30.38F WCI  19
DRYDEN           N/A     32  26  78 N6        30.45F WCI  26
FORT STOCKTON  CLEAR     26  24  92 S6        30.42F WCI  19
GUAD PASS      NOT AVBL
HOBBS            N/A     23  23 100 SW5       30.40F WCI  17
MARFA          CLEAR     21  18  86 N5        30.39S WCI  15
MIDLAND AIRPK  CLEAR     30  25  82 CALM      30.45F
MIDLAND INTL   CLEAR     27  23  85 CALM      30.43F
ODESSA         CLEAR     27  23  85 E3        30.43F
PECOS          CLEAR     27  25  93 CALM      30.44F
PRESIDIO       FAIR      37  26  63 NE6       30.41F WCI  33
SEMINOLE       CLEAR     25  24  99 CALM      30.42F
SNYDER         CLEAR     24  19  83 S5        30.47F WCI  18
WINK           CLEAR     27  22  81 NE3       30.42F
$$
...OTHER STATIONS IN TEXAS...

CITY           SKY/WX    TMP DP  RH WIND       PRES   REMARKS
ABILENE        CLEAR     28  20  71 S9        30.50F WCI  19
AMARILLO       CLEAR     26  22  84 SW10      30.36S WCI  16
AUSTIN         PTCLDY    23  18  81 N7        30.57F WCI  15
BROWNSVILLE    CLOUDY    47  33  58 N13G20    30.49F
CORPUS CHRISTI CLOUDY    40  28  62 N17       30.54F WCI  31
DALLAS FTW     CLEAR     28  20  71 W9        30.56F WCI  19
DEL RIO        CLEAR     35  28  75 SE3       30.53S
EL PASO        CLEAR     38  14  37 CALM      30.35F
HOUSTON INT    PTCLDY    33  23  66 N6        30.56F WCI  28
LUBBOCK        CLEAR     29  24  82 SW8       30.40F WCI  21
SAN ANGELO     CLEAR     26  21  81 SW5       30.49F WCI  20
SAN ANTONIO    CLEAR     32  21  64 N8        30.56S WCI  25
WACO           CLEAR     22  19  89 W5        30.59S WCI  16
WICHITA FALLS  NOT AVBL
$$
...OTHER LOCATIONS IN NEW MEXICO...

CITY           SKY/WX    TMP DP  RH WIND       PRES   REMARKS
ALAMAGORDO     CLEAR     32  23  69 NE7       30.37F WCI  26
ALBUQUERQUE    CLEAR     36  12  37 N6        30.37S WCI  31
CANNON AFB     CLEAR     23  20  87 W3        30.34F
CLOVIS         CLEAR     21  18  86 SW6       30.35S WCI  14
HOLLOMAN AFB   CLEAR     28  22  76 CALM      30.36S
ROSWELL        CLEAR     24  21  88 CALM      30.38S
RUIDOSO        CLEAR     28   9  43 SW5       30.36S WCI  23
SANTA FE       CLEAR     29  14  53 N9        30.33F WCI  20
TRUTH OR CONSE CLEAR     33  16  49 NW6       30.35F WCI  28
TUCUMCARI      CLEAR     28  23  81 SW14      30.32S WCI  17
$$

USA.gov is the U.S. government's official web portal to all federal, state and local government web resources and services.